CW5920 Weather Reports


time (UTC)temp
F
wind
direction
speed
knots
gust
knots
rain 1hr
in
rain 24hr
in
rain mn
in
humidity
%
barometer
mb
20260901100016 81 158 0.9 5.2 0.00 0.00 0.00 69 1015.9
20260901095017 82 158 0.9 4.3 0.00 0.00 0.00 69 1016.1
20260901094036 82 158 0.9 3.5 0.00 0.00 0.00 69 1016.2
20260901093017 82 158 0.9 5.2 0.00 0.00 0.00 68 1016.2
20260901092016 82 0.0 1.7 0.00 0.00 0.00 68 1016.2
20260901091016 82 158 0.9 8.7 0.00 0.00 0.00 67 1016.4
20260901090037 82 135 3.5 7.8 0.00 0.00 0.00 66 1016.3
20260901085016 82 158 3.5 8.7 0.00 0.00 0.00 66 1016.3
20260901084015 83 158 2.6 7.0 0.00 0.00 0.00 65 1016.4
20260901083015 83 135 3.5 7.8 0.00 0.00 0.00 64 1016.3
20260901082016 83 135 6.1 10.4 0.00 0.00 0.00 64 1016.3
20260901081016 83 158 4.3 10.4 0.00 0.00 0.00 63 1016.2
20260901080015 83 135 5.2 12.2 0.00 0.00 0.00 63 1016.1
20260901075015 83 158 5.2 11.3 0.00 0.00 0.00 62 1016.1
20260901074016 82 158 4.3 7.0 0.00 0.00 0.00 62 1016.1
20260901073016 82 135 2.6 5.2 0.00 0.00 0.00 61 1016.0
20260901072016 82 113 2.6 4.3 0.00 0.00 0.00 59 1016.0
20260901071035 82 113 2.6 5.2 0.00 0.00 0.00 57 1015.9
20260901070015 82 135 3.5 6.1 0.00 0.00 0.00 56 1015.9
20260901065015 82 113 1.7 3.5 0.00 0.00 0.00 55 1015.7
20260901064016 83 113 0.9 2.6 0.00 0.00 0.00 53 1015.6
20260901063055 83 113 1.7 3.5 0.00 0.00 0.00 52 1015.6
20260901062015 84 113 2.6 5.2 0.00 0.00 0.00 52 1015.5
20260901061035 84 113 3.5 6.1 0.00 0.00 0.00 51 1015.5
20260901060016 84 135 1.7 6.1 0.00 0.00 0.00 51 1015.5
20260901055016 84 135 0.9 2.6 0.00 0.00 0.00 50 1015.1
20260901054015 84 0.0 1.7 0.00 0.00 0.00 50 1015.1
20260901053015 84 135 0.9 3.5 0.00 0.00 0.00 50 1014.9
20260901052015 84 113 0.9 3.5 0.00 0.00 0.00 51 1014.9
20260901051015 84 113 0.9 1.7 0.00 0.00 0.00 52 1014.8
20260901050036 84 113 0.9 3.5 0.00 0.00 0.00 52 1014.8
20260901045015 84 113 1.7 3.5 0.00 0.00 0.00 52 1014.9
20260901044015 84 113 0.9 2.6 0.00 0.00 0.00 52 1014.8
20260901043015 84 113 0.9 2.6 0.00 0.00 0.00 52 1014.7
20260901042015 85 113 0.9 1.7 0.00 0.00 0.00 51 1014.8
20260901041016 85 113 1.7 3.5 0.00 0.00 0.00 51 1014.8
20260901040016 85 113 0.9 2.6 0.00 0.00 0.00 51 1014.7
20260901035015 85 113 0.9 2.6 0.00 0.00 0.00 51 1014.8
20260901034016 85 135 1.7 4.3 0.00 0.00 0.00 51 1014.7
20260901033035 85 0.0 2.6 0.00 0.00 0.00 51 1014.7
20260901032016 86 113 1.7 3.5 0.00 0.00 0.00 50 1014.7
20260901030015 86 113 1.7 2.6 0.00 0.00 0.00 48 1014.5
20260901025015 87 113 1.7 2.6 0.00 0.00 0.00 48 1014.4
20260901024015 87 113 0.9 2.6 0.00 0.00 0.00 47 1014.2
20260901023016 88 113 1.7 2.6 0.00 0.00 0.00 47 1014.2
20260901022015 88 113 0.9 1.7 0.00 0.00 0.00 46 1014.1
20260901021015 89 113 1.7 2.6 0.00 0.00 0.00 45 1013.9
20260901020015 89 113 0.9 2.6 0.00 0.00 0.00 44 1013.9
20260901015015 90 0.0 0.0 0.00 0.00 0.00 44 1013.6
20260901014015 90 113 1.7 2.6 0.00 0.00 0.00 43 1013.5
20260901013015 91 113 1.7 3.5 0.00 0.00 0.00 42 1013.5
20260901012016 92 113 2.6 6.1 0.00 0.00 0.00 41 1013.4
20260901011015 92 113 1.7 3.5 0.00 0.00 0.00 41 1013.4
20260901010015 93 113 1.7 5.2 0.00 0.00 0.00 40 1013.3
20260901005015 94 113 2.6 5.2 0.00 0.00 0.00 39 1013.3
20260901004015 94 113 5.2 8.7 0.00 0.00 0.00 38 1013.3
20260901003015 95 113 6.1 9.6 0.00 0.00 0.00 38 1013.2
20260901002015 95 113 5.2 9.6 0.00 0.00 0.00 37 1013.3
20260901001015 96 113 7.0 9.6 0.00 0.00 0.00 36 1013.3
20260901000015 96 113 6.1 11.3 0.00 0.00 0.00 36 1013.3
20260831235015 97 113 7.8 13.9 0.00 0.00 0.00 36 1013.3
20260831234016 97 135 3.5 7.0 0.00 0.00 0.00 35 1013.4
20260831233015 97 113 4.3 10.4 0.00 0.00 0.00 35 1013.3
20260831232017 97 158 3.5 7.0 0.00 0.00 0.00 34 1013.4
20260831231017 98 113 7.0 10.4 0.00 0.00 0.00 33 1013.4
20260831230017 98 113 7.0 12.2 0.00 0.00 0.00 34 1013.3
20260831225017 98 113 3.5 7.8 0.00 0.00 0.00 33 1013.4
20260831224017 99 113 6.1 10.4 0.00 0.00 0.00 33 1013.5
20260831223017 99 113 10.4 14.8 0.00 0.00 0.00 32 1013.5
20260831222017 98 158 5.2 8.7 0.00 0.00 0.00 32 1013.5
20260831221017 98 135 7.0 11.3 0.00 0.00 0.00 33 1013.6
20260831220018 98 113 4.3 8.7 0.00 0.00 0.00 33 1013.7
20260831215015 98 113 7.8 11.3 0.00 0.00 0.00 32 1013.8
20260831214017 98 113 7.8 12.2 0.00 0.00 0.00 33 1013.9
20260831213015 99 113 6.1 10.4 0.00 0.00 0.00 32 1013.9
20260831212037 99 113 8.7 13.9 0.00 0.00 0.00 33 1014.1
20260831211015 98 113 6.1 11.3 0.00 0.00 0.00 34 1014.2
20260831210017 99 90 6.1 13.0 0.00 0.00 0.00 33 1014.3
20260831205015 100 68 7.0 12.2 0.00 0.00 0.00 32 1014.5
20260831204017 100 113 8.7 17.4 0.00 0.00 0.00 33 1014.6
20260831203017 99 135 7.8 13.0 0.00 0.00 0.00 33 1014.9
20260831202017 99 158 3.5 12.2 0.00 0.00 0.00 33 1014.9
20260831201017 99 158 4.3 16.5 0.00 0.00 0.00 35 1015.1
20260831200017 98 135 7.0 12.2 0.00 0.00 0.00 35 1015.2
20260831195017 99 90 6.1 12.2 0.00 0.00 0.00 34 1015.3
20260831194017 99 113 7.0 11.3 0.00 0.00 0.00 35 1015.3
20260831193037 98 113 4.3 11.3 0.00 0.00 0.00 37 1015.5
20260831192017 98 135 10.4 20.0 0.00 0.00 0.00 36 1015.7
20260831191037 99 113 7.8 14.8 0.00 0.00 0.00 37 1015.8
20260831190017 99 135 10.4 18.2 0.00 0.00 0.00 36 1015.9
20260831185017 99 113 9.6 13.0 0.00 0.00 0.00 36 1016.0
20260831184017 99 135 8.7 13.0 0.00 0.00 0.00 36 1016.1
20260831183017 99 135 9.6 16.5 0.00 0.00 0.00 36 1016.1
20260831182017 98 135 6.1 13.0 0.00 0.00 0.00 38 1016.2
20260831181017 98 135 9.6 17.4 0.00 0.00 0.00 37 1016.5
20260831180017 98 203 2.6 12.2 0.00 0.00 0.00 38 1016.6
20260831175017 98 158 5.2 14.8 0.00 0.00 0.00 37 1016.9
20260831174017 98 113 2.6 8.7 0.00 0.00 0.00 38 1017.1
20260831173017 97 135 6.1 16.5 0.00 0.00 0.00 39 1017.2
20260831172037 97 135 5.2 10.4 0.00 0.00 0.00 39 1017.2
20260831171037 96 135 7.0 12.2 0.00 0.00 0.00 40 1017.3
20260831170017 96 158 5.2 11.3 0.00 0.00 0.00 39 1017.4
20260831165017 96 135 6.1 11.3 0.00 0.00 0.00 40 1017.4
20260831164017 96 135 1.7 11.3 0.00 0.00 0.00 40 1017.3
20260831163017 95 158 4.3 9.6 0.00 0.00 0.00 41 1017.3
20260831162017 94 158 2.6 8.7 0.00 0.00 0.00 43 1017.3
20260831161037 94 135 2.6 9.6 0.00 0.00 0.00 44 1017.2
20260831160017 93 158 3.5 10.4 0.00 0.00 0.00 45 1017.2
20260831155017 92 158 0.9 11.3 0.00 0.00 0.00 47 1017.2
20260831154017 92 158 2.6 8.7 0.00 0.00 0.00 50 1017.2
20260831153017 91 158 1.7 7.0 0.00 0.00 0.00 52 1017.1
20260831152037 90 158 2.6 8.7 0.00 0.00 0.00 54 1017.0
20260831151037 89 158 0.9 4.3 0.00 0.00 0.00 56 1017.0
20260831150017 88 158 1.7 12.2 0.00 0.00 0.00 60 1017.0
20260831145037 87 225 0.9 2.6 0.00 0.00 0.00 61 1016.9
20260831144017 86 203 0.9 5.2 0.00 0.00 0.00 63 1016.9
20260831143017 85 180 1.7 8.7 0.00 0.00 0.00 64 1016.9
20260831142037 85 158 2.6 8.7 0.00 0.00 0.00 66 1016.9
20260831141017 84 158 1.7 9.6 0.00 0.00 0.00 68 1016.9
20260831140017 83 158 3.5 8.7 0.00 0.00 0.00 70 1016.9
20260831135037 82 158 2.6 5.2 0.00 0.00 0.00 72 1016.8
20260831134017 82 158 3.5 10.4 0.00 0.00 0.00 73 1016.7
20260831133017 81 158 3.5 8.7 0.00 0.00 0.00 74 1016.6
20260831132037 81 158 4.3 9.6 0.00 0.00 0.00 75 1016.3
20260831131017 80 158 4.3 11.3 0.00 0.00 0.00 76 1016.3
20260831130017 79 158 4.3 10.4 0.00 0.00 0.00 77 1016.2
20260831125017 79 158 4.3 9.6 0.00 0.00 0.00 78 1016.1
20260831124017 79 158 2.6 7.0 0.00 0.00 0.00 78 1015.8
20260831123017 78 158 2.6 6.1 0.00 0.00 0.00 78 1015.8
20260831122017 78 158 2.6 7.0 0.00 0.00 0.00 78 1015.7
20260831121117 78 158 2.6 5.2 0.00 0.00 0.00 77 1015.6
20260831120017 78 158 2.6 7.0 0.00 0.00 0.00 77 1015.5
20260831115017 79 158 3.5 8.7 0.00 0.00 0.00 77 1015.3
20260831114017 79 158 3.5 9.6 0.00 0.00 0.00 77 1015.3
20260831113017 79 158 2.6 6.1 0.00 0.00 0.00 76 1015.2
20260831112017 79 158 3.5 7.8 0.00 0.00 0.00 76 1015.2
20260831111017 79 158 2.6 6.1 0.00 0.00 0.00 75 1015.0
20260831110017 79 158 4.3 8.7 0.00 0.00 0.00 75 1015.0
20260831105017 80 158 4.3 8.7 0.00 0.00 0.00 74 1015.0
20260831104017 80 158 1.7 5.2 0.00 0.00 0.00 73 1015.0
20260831103017 80 158 1.7 7.0 0.00 0.00 0.00 73 1015.0
20260831102017 80 158 2.6 7.0 0.00 0.00 0.00 72 1015.1
20260831101017 80 158 3.5 7.8 0.00 0.00 0.00 72 1015.1